STARLINK-11397, 62590

Orbit data source: Space-Track

STARLINK-11397, 62590 is a payload satellite owned by SpaceX/Seattle (US) in LEO that was launched on Mon, 13 Jan 2025 UTC via an FALCON 9 launch vehicle from the Air Force Eastern Test Range (AFETR). Payload-class satellites include a variety of spacecraft equipped with specific instruments for various scientific and technological missions. These include communications satellites like Starlink; space stations such as the ISS; scientific satellites like the Hubble; Earth observation satellites from companies like Planet Labs, Umbra, and HawkEye 360; GPS; miniature CubeSats for education and research; and military/defense satellites.

Loading next visibility...
Identifier
62590, 2025-008D
Orbit
LEO
Last TLE update
17 hours ago
Origin
Manufacturer
SpaceX/Seattle
Mission
Operational Commercial Communications
Bus & Motor
STARLINK V2M, Unknown motor
Mass
730 kg wet, ~700 kg dry
Launch date (UTC)
2025-01-13 (4 months ago)
Launch vehicle
FALCON 9
Launch site
Air Force Eastern Test Range (AFETR)
Object type
Payload
Rocket body
Debris
Shape & HBR
Box + 2 Pan, 29 m
Radar Cross Section
36.964 m², Large (>1 m²)

Expand to show TLE details & history

TLE from 17 hours ago
0 STARLINK-11397
1 62590U 25008D   25128.58096006  .00000838  00000-0  10024-4 0  9999
2 62590  43.0007 164.8051 0001397 276.9038  83.1670 15.70830427 19246
Epoch: 2025-05-08T13:56Z
Definitive object data (Epoch: 2025-05-08T13:56:34.949Z)
Latitude
-0.00005°
Longitude
89.01002°
Altitude
356.182 km
Speed
7.697 km/s
True Right ascension
10h 59m 13s
True Declination
0° 00' 00"
Sunlit
Object was in full shadow at TLE epoch
Visualization TLE readout
Latitude
-31.874°
Longitude
43.31239°
Altitude
364.415 km
Speed
7.692 km/s
Apparent Right ascension
05h 32m 54s
Apparent Declination
-42° 50' 16"
Sunlit
Object is in daylight
Visualization observer readout
Local Sidereal Time
14:39:45
Azimuth
250.404° W
Elevation
-57.744°
Doppler factor
1
Orbital elements
Apogee altitude
359.445 km
Perigee altitude
357.563 km
Semi-major axis
6,736.641 km
Eccentricity
0.0001397
Inclination
43.0007°
RAAN
164.8051°
Arg. of periapsis
276.9038°
True anomaly
83.1829°
Mean anomaly
83.167°
Eccentric anomaly
83.17495°
Mean motion
3.92535 °/min
BSTAR
0.000010024
Orbital period
91.71 mins
Loading maneuver chart data...
Loading SW <> Apogee altitude chart data...
Loading historical data...
Loading historical data...
Loading historical data...
Loading historical data...
Loading historical data...
Loading historical data...
Loading historical data...

STARLINK-11397 Visibility forecast

Observer location: undefined°, undefined°

Span
Click to sort rows by Start time (UTC) header in descending order
Start Az.
Max El. time (UTC)
Max El. Az.
Max El.
End time (UTC)
End Az.
5 mins2025-05-09 06:59:54.162Z258.936° W2025-05-09 07:01:54.162Z288.468° WNW42.006°2025-05-09 07:04:54.162Z69.76° E
4 mins2025-05-09 08:36:54.162Z298.269° NW2025-05-09 08:38:54.162Z25.603° NE32.937°2025-05-09 08:40:54.162Z72.44° E
4 mins2025-05-09 10:12:54.162Z288.472° WNW2025-05-09 10:14:54.162Z104° ESE44.735°2025-05-09 10:16:54.162Z108.631° ESE
5 mins2025-05-10 05:50:54.162Z237.234° WSW2025-05-10 05:53:54.162Z132.607° SE40.142°2025-05-10 05:55:54.162Z79.073° E
|